LAN287 SBGR-SBRJ

Flight info

Callsign LAN287
Flight time 0h 36m
Altitude 23000
Route NIBRU UZ171 KEVUN
Aircraft A320/M-SDE3FGHIRWY/LB1

Departure

Time 2026-05-06 20:45
Airport São Paulo/Guarulhos–Governor André Franco Montoro International Airport (SBGR)

Arrival

Time 2026-05-06 21:21
Airport Santos Dumont Airport (SBRJ)
Time Latitude Longitude Altitude Speed Heading
2026-05-06 20:18 -23.42716 -46.48233 2474 ft 0 kts 265°
2026-05-06 20:28 -23.42716 -46.48222 2473 ft 4 kts 265°
2026-05-06 20:29 -23.42713 -46.48192 2473 ft 4 kts 258°
2026-05-06 20:29 -23.42704 -46.48167 2473 ft 4 kts 220°
2026-05-06 20:29 -23.42695 -46.48160 2473 ft 0 kts 193°
2026-05-06 20:36 -23.42736 -46.48170 2473 ft 12 kts 192°
2026-05-06 20:36 -23.42818 -46.48174 2473 ft 9 kts 175°
2026-05-06 20:36 -23.42873 -46.48167 2473 ft 7 kts 171°
2026-05-06 20:37 -23.42882 -46.48166 2473 ft 0 kts 169°
2026-05-06 20:37 -23.42892 -46.48163 2473 ft 2 kts 168°
2026-05-06 20:37 -23.42913 -46.48156 2473 ft 7 kts 159°
2026-05-06 20:37 -23.42939 -46.48146 2473 ft 2 kts 163°
2026-05-06 20:38 -23.42989 -46.48135 2474 ft 15 kts 173°
2026-05-06 20:38 -23.43075 -46.48127 2474 ft 10 kts 179°
2026-05-06 20:38 -23.43124 -46.48165 2474 ft 8 kts 245°
2026-05-06 20:38 -23.43139 -46.48217 2474 ft 7 kts 253°
2026-05-06 20:39 -23.43168 -46.48327 2474 ft 21 kts 253°
2026-05-06 20:39 -23.43246 -46.48381 2474 ft 7 kts 166°
2026-05-06 20:39 -23.43247 -46.48381 2474 ft 0 kts 165°
2026-05-06 20:40 -23.43248 -46.48381 2474 ft 1 kts 165°
2026-05-06 20:40 -23.43302 -46.48365 2475 ft 5 kts 164°
2026-05-06 20:40 -23.43302 -46.48364 2475 ft 0 kts 164°
2026-05-06 20:41 -23.43304 -46.48364 2475 ft 2 kts 164°
2026-05-06 20:41 -23.43348 -46.48351 2475 ft 11 kts 165°
2026-05-06 20:41 -23.43416 -46.48292 2474 ft 14 kts 93°
2026-05-06 20:42 -23.43411 -46.48268 2474 ft 0 kts 73°
2026-05-06 20:44 -23.43364 -46.48092 2474 ft 60 kts 73°
2026-05-06 20:44 -23.43182 -46.47421 2470 ft 122 kts 73°
2026-05-06 20:45 -23.42894 -46.46361 2491 ft 167 kts 73°
2026-05-06 20:45 -23.42566 -46.45176 3206 ft 163 kts 73°
2026-05-06 20:45 -23.42226 -46.43988 3809 ft 168 kts 74°
2026-05-06 20:45 -23.41839 -46.42691 4030 ft 190 kts 74°
2026-05-06 20:46 -23.41413 -46.41237 4221 ft 213 kts 73°
2026-05-06 20:46 -23.40938 -46.39600 4535 ft 239 kts 73°
2026-05-06 20:46 -23.40417 -46.37794 4951 ft 260 kts 74°
2026-05-06 20:46 -23.40227 -46.35817 5646 ft 268 kts 96°
2026-05-06 20:47 -23.40727 -46.33844 6441 ft 273 kts 109°
2026-05-06 20:47 -23.41375 -46.31883 7231 ft 277 kts 108°
2026-05-06 20:47 -23.42029 -46.29894 8003 ft 281 kts 108°
2026-05-06 20:47 -23.42692 -46.27873 8766 ft 286 kts 108°
2026-05-06 20:48 -23.43368 -46.25814 9534 ft 291 kts 108°
2026-05-06 20:48 -23.43966 -46.23687 10017 ft 296 kts 99°
2026-05-06 20:48 -23.44351 -46.21515 10141 ft 297 kts 99°
2026-05-06 20:48 -23.44747 -46.19200 10337 ft 321 kts 99°
2026-05-06 20:49 -23.45163 -46.16748 10707 ft 338 kts 99°
2026-05-06 20:49 -23.45600 -46.14206 11310 ft 344 kts 99°
2026-05-06 20:49 -23.46044 -46.11633 11999 ft 348 kts 100°
2026-05-06 20:49 -23.46494 -46.09033 12704 ft 350 kts 100°
2026-05-06 20:50 -23.46947 -46.06418 13048 ft 351 kts 100°
2026-05-06 20:50 -23.47399 -46.03804 13141 ft 351 kts 100°
2026-05-06 20:50 -23.47852 -46.01188 13155 ft 352 kts 100°
2026-05-06 20:50 -23.48302 -45.98572 13153 ft 351 kts 100°
2026-05-06 20:51 -23.48750 -45.95968 13158 ft 351 kts 100°
2026-05-06 20:51 -23.49200 -45.93356 13166 ft 351 kts 100°
2026-05-06 20:51 -23.49654 -45.90744 13168 ft 351 kts 100°
2026-05-06 20:51 -23.50111 -45.88138 13168 ft 350 kts 101°
2026-05-06 20:52 -23.50570 -45.85530 13165 ft 351 kts 101°
2026-05-06 20:52 -23.51029 -45.82914 13166 ft 351 kts 101°
2026-05-06 20:52 -23.51489 -45.80301 13164 ft 351 kts 101°
2026-05-06 20:52 -23.51947 -45.77694 13164 ft 351 kts 101°
2026-05-06 20:53 -23.52407 -45.75074 13320 ft 356 kts 101°
2026-05-06 20:53 -23.52872 -45.72424 14044 ft 356 kts 101°
2026-05-06 20:53 -23.53338 -45.69768 14655 ft 359 kts 101°
2026-05-06 20:53 -23.53806 -45.67088 15218 ft 362 kts 101°
2026-05-06 20:54 -23.54278 -45.64372 15777 ft 366 kts 102°
2026-05-06 20:54 -23.54754 -45.61634 16341 ft 369 kts 102°
2026-05-06 20:54 -23.55228 -45.58904 16893 ft 373 kts 102°
2026-05-06 20:54 -23.55711 -45.56110 17419 ft 377 kts 102°
2026-05-06 20:55 -23.56199 -45.53290 17969 ft 381 kts 102°
2026-05-06 20:55 -23.56695 -45.50443 18504 ft 384 kts 102°
2026-05-06 20:55 -23.56999 -45.47539 18975 ft 389 kts 93°
2026-05-06 20:55 -23.56800 -45.44578 19420 ft 395 kts 82°
2026-05-06 20:56 -23.56196 -45.41638 19866 ft 400 kts 79°
2026-05-06 20:56 -23.55560 -45.38673 20324 ft 403 kts 79°
2026-05-06 20:56 -23.54926 -45.35680 20778 ft 407 kts 79°
2026-05-06 20:56 -23.54291 -45.32665 21243 ft 410 kts 79°
2026-05-06 20:57 -23.53651 -45.29621 21706 ft 413 kts 79°
2026-05-06 20:57 -23.53005 -45.26558 22157 ft 417 kts 79°
2026-05-06 20:57 -23.52352 -45.23469 22594 ft 420 kts 78°
2026-05-06 20:57 -23.51691 -45.20356 23031 ft 424 kts 78°
2026-05-06 20:58 -23.51024 -45.17228 23141 ft 424 kts 78°
2026-05-06 20:58 -23.50352 -45.14094 23160 ft 424 kts 78°
2026-05-06 20:58 -23.49682 -45.10974 23160 ft 423 kts 78°
2026-05-06 20:58 -23.49011 -45.07850 23159 ft 423 kts 78°
2026-05-06 20:59 -23.48342 -45.04729 23161 ft 423 kts 78°
2026-05-06 20:59 -23.47675 -45.01610 23159 ft 423 kts 78°
2026-05-06 20:59 -23.47006 -44.98483 23160 ft 423 kts 78°
2026-05-06 20:59 -23.46339 -44.95365 23160 ft 423 kts 78°
2026-05-06 21:00 -23.45668 -44.92248 23161 ft 423 kts 78°
2026-05-06 21:00 -23.44984 -44.89135 23164 ft 423 kts 78°
2026-05-06 21:00 -23.44290 -44.86028 23161 ft 423 kts 78°
2026-05-06 21:00 -23.43590 -44.82916 23160 ft 423 kts 78°
2026-05-06 21:01 -23.42901 -44.79847 23162 ft 423 kts 78°
2026-05-06 21:01 -23.42205 -44.76738 23165 ft 423 kts 78°
2026-05-06 21:01 -23.41512 -44.73630 23162 ft 423 kts 78°
2026-05-06 21:01 -23.40818 -44.70515 23157 ft 423 kts 78°
2026-05-06 21:02 -23.40125 -44.67404 23146 ft 423 kts 78°
2026-05-06 21:02 -23.39428 -44.64286 22592 ft 424 kts 78°
2026-05-06 21:02 -23.38732 -44.61187 21736 ft 418 kts 78°
2026-05-06 21:02 -23.38045 -44.58132 20755 ft 412 kts 78°
2026-05-06 21:03 -23.37372 -44.55127 20004 ft 402 kts 78°
2026-05-06 21:03 -23.36723 -44.52235 19520 ft 386 kts 78°
2026-05-06 21:03 -23.36098 -44.49451 19038 ft 372 kts 78°
2026-05-06 21:03 -23.35492 -44.46763 18573 ft 360 kts 78°
2026-05-06 21:04 -23.34945 -44.44334 18107 ft 349 kts 78°
2026-05-06 21:04 -23.34275 -44.41830 17660 ft 343 kts 70°
2026-05-06 21:04 -23.33298 -44.39469 17216 ft 342 kts 66°
2026-05-06 21:04 -23.32303 -44.37155 16784 ft 340 kts 66°
2026-05-06 21:05 -23.31307 -44.34835 16347 ft 337 kts 66°
2026-05-06 21:05 -23.30315 -44.32525 15912 ft 337 kts 66°
2026-05-06 21:05 -23.29319 -44.30215 15486 ft 337 kts 66°
2026-05-06 21:05 -23.28321 -44.27905 15047 ft 338 kts 65°
2026-05-06 21:06 -23.27321 -44.25588 14614 ft 339 kts 65°
2026-05-06 21:06 -23.26321 -44.23266 14184 ft 339 kts 65°
2026-05-06 21:06 -23.25321 -44.20939 13692 ft 340 kts 65°
2026-05-06 21:06 -23.24320 -44.18610 13237 ft 339 kts 65°
2026-05-06 21:07 -23.23322 -44.16296 12779 ft 338 kts 65°
2026-05-06 21:07 -23.22325 -44.13988 12317 ft 337 kts 65°
2026-05-06 21:07 -23.21333 -44.11690 11854 ft 335 kts 65°
2026-05-06 21:07 -23.20344 -44.09399 11398 ft 334 kts 65°
2026-05-06 21:08 -23.19358 -44.07122 10994 ft 331 kts 64°
2026-05-06 21:08 -23.18359 -44.04901 10823 ft 325 kts 63°
2026-05-06 21:08 -23.17363 -44.02743 10599 ft 323 kts 63°
2026-05-06 21:08 -23.16359 -44.00606 10458 ft 311 kts 58°
2026-05-06 21:09 -23.15363 -43.98573 10321 ft 299 kts 58°
2026-05-06 21:09 -23.14443 -43.96591 10159 ft 290 kts 59°
2026-05-06 21:09 -23.13571 -43.94625 10004 ft 289 kts 65°
2026-05-06 21:09 -23.12755 -43.92632 9897 ft 288 kts 66°
2026-05-06 21:10 -23.11953 -43.90639 9740 ft 288 kts 66°
2026-05-06 21:10 -23.11145 -43.88649 9576 ft 288 kts 65°
2026-05-06 21:10 -23.10328 -43.86670 9433 ft 287 kts 65°
2026-05-06 21:10 -23.09501 -43.84699 9276 ft 286 kts 65°
2026-05-06 21:11 -23.08669 -43.82737 9119 ft 286 kts 65°
2026-05-06 21:11 -23.07837 -43.80793 8965 ft 282 kts 64°
2026-05-06 21:11 -23.07011 -43.78869 8813 ft 281 kts 64°
2026-05-06 21:11 -23.06186 -43.76948 8664 ft 282 kts 65°
2026-05-06 21:12 -23.05357 -43.75026 8501 ft 280 kts 64°
2026-05-06 21:12 -23.04535 -43.73119 8359 ft 278 kts 64°
2026-05-06 21:12 -23.03718 -43.71214 8209 ft 279 kts 64°
2026-05-06 21:12 -23.02899 -43.69304 8047 ft 279 kts 64°
2026-05-06 21:13 -23.02078 -43.67414 7772 ft 275 kts 64°
2026-05-06 21:13 -23.01257 -43.65537 7510 ft 275 kts 64°
2026-05-06 21:13 -23.00434 -43.63662 7254 ft 274 kts 64°
2026-05-06 21:13 -22.99612 -43.61787 7041 ft 274 kts 64°
2026-05-06 21:14 -22.98793 -43.59920 6843 ft 276 kts 64°
2026-05-06 21:14 -22.97971 -43.58050 6646 ft 273 kts 64°
2026-05-06 21:14 -22.97151 -43.56191 6497 ft 273 kts 64°
2026-05-06 21:14 -22.96333 -43.54339 6334 ft 272 kts 64°
2026-05-06 21:15 -22.95515 -43.52484 6160 ft 272 kts 64°
2026-05-06 21:15 -22.94702 -43.50633 6006 ft 271 kts 64°
2026-05-06 21:15 -22.93906 -43.48785 5713 ft 269 kts 65°
2026-05-06 21:15 -22.93130 -43.46949 5431 ft 265 kts 65°
2026-05-06 21:16 -22.92375 -43.45154 5166 ft 259 kts 65°
2026-05-06 21:16 -22.91635 -43.43393 4902 ft 254 kts 65°
2026-05-06 21:16 -22.90916 -43.41693 4614 ft 249 kts 65°
2026-05-06 21:16 -22.90199 -43.39999 4311 ft 245 kts 65°
2026-05-06 21:17 -22.89497 -43.38338 4021 ft 239 kts 65°
2026-05-06 21:17 -22.88812 -43.36715 3738 ft 235 kts 65°
2026-05-06 21:17 -22.88158 -43.35106 3455 ft 231 kts 68°
2026-05-06 21:17 -22.87780 -43.34008 3269 ft 229 kts 69°
2026-05-06 21:18 -22.87253 -43.32395 2994 ft 225 kts 70°
2026-05-06 21:18 -22.86750 -43.30815 2727 ft 221 kts 70°
2026-05-06 21:18 -22.86252 -43.29242 2462 ft 221 kts 70°
2026-05-06 21:18 -22.85754 -43.27672 2198 ft 220 kts 71°
2026-05-06 21:19 -22.85514 -43.26061 2049 ft 217 kts 95°
2026-05-06 21:19 -22.85744 -43.24441 2036 ft 217 kts 98°
2026-05-06 21:19 -22.85971 -43.22886 1958 ft 204 kts 96°
2026-05-06 21:19 -22.86200 -43.21424 1570 ft 196 kts 97°
2026-05-06 21:20 -22.86416 -43.19980 1116 ft 193 kts 97°
2026-05-06 21:20 -22.86709 -43.18607 678 ft 179 kts 111°
2026-05-06 21:20 -22.87284 -43.17525 615 ft 151 kts 125°
2026-05-06 21:20 -22.87994 -43.16723 534 ft 144 kts 144°
2026-05-06 21:21 -22.88915 -43.16399 370 ft 140 kts 174°
2026-05-06 21:21 -22.89872 -43.16367 196 ft 135 kts 172°
2026-05-06 21:21 -22.90787 -43.16296 40 ft 123 kts 173°
2026-05-06 21:21 -22.91350 -43.16262 22 ft 46 kts 177°
2026-05-06 21:22 -22.91515 -43.16284 23 ft 15 kts 241°
2026-05-06 21:22 -22.91511 -43.16388 27 ft 11 kts 302°
2026-05-06 21:22 -22.91469 -43.16433 29 ft 7 kts 318°
2026-05-06 21:22 -22.91439 -43.16464 29 ft 5 kts 315°
2026-05-06 21:23 -22.91396 -43.16503 29 ft 10 kts 336°
2026-05-06 21:23 -22.91349 -43.16525 30 ft 6 kts 276°
2026-05-06 21:23 -22.91352 -43.16566 30 ft 4 kts 267°
2026-05-06 21:23 -22.91352 -43.16573 30 ft 0 kts 267°